Temp_Advection
nan nan nan nan nan nan nan nan nan nan nan nan nan nan nan nan nan nan nan nan nan nan nan nan nan nan nan nan nan nan nan nan nan nan nan nan nan nan nan nan nan nan nan nan nan nan nan nan nan nan nan nan nan nan
nan 0 -0 -0 1 0 -0 -0 -0 -0 0 0 -0 -0 -0 0 0 0 -0 0 1 -0 -0 0 0 -0 -0 -0 0 0 0 0 -0 0 -0 0 0 0 -0 -2 -1 0 -1 -0 -0 -1 -1 0 0 1 0 1 1 nan
nan 0 0 1 -0 -1 0 -0 -0 0 0 0 0 -0 -0 0 0 0 -0 0 0 0 0 -0 -2 -0 1 0 1 1 0 -0 -0 1 1 0 -0 -0 0 -0 0 -0 -0 -0 -1 -1 -1 1 0 0 1 -1 -0 nan
nan 0 0 0 -0 -0 -0 -1 0 0 -0 0 0 0 0 -0 0 0 -0 0 1 0 0 -1 -1 0 1 0 0 -0 -0 0 0 1 2 0 -0 0 -0 -0 -0 -0 0 -0 -2 -1 0 0 -1 0 1 -0 -0 nan
nan 0 0 0 -0 -0 0 0 0 -0 -0 -0 0 0 0 0 0 0 -0 0 0 1 0 -0 -0 -0 0 0 0 0 0 0 1 1 0 -1 -0 0 -0 -0 -0 -1 0 0 -0 -2 -1 -1 -0 0 1 1 -0 nan
nan 0 0 0 0 0 -0 -0 -0 -1 -0 1 1 1 1 0 0 1 0 -1 -0 1 1 0 -0 0 -1 -0 1 1 0 0 1 0 -0 -0 -0 1 0 -1 -1 -1 -0 0 0 -1 -2 -1 -0 0 -0 -0 -0 nan
nan 0 0 0 0 0 0 -0 0 0 1 1 0 1 0 0 0 1 0 0 0 1 0 0 0 -0 -0 1 -0 0 1 1 1 0 0 -0 0 0 -0 -2 -3 0 -0 0 0 -1 0 0 -0 -0 0 -0 -0 nan
nan 0 0 0 0 0 0 0 0 0 0 0 1 1 1 1 2 1 0 0 1 1 1 0 -0 -0 0 0 0 0 0 0 0 0 -0 -0 -0 0 -1 -3 -1 -1 -0 -0 0 1 0 -0 -0 -0 -0 -0 -1 nan
nan -0 -0 0 0 0 0 0 0 0 0 0 1 1 1 1 1 0 1 1 1 0 0 0 -0 -0 -0 0 0 0 0 -0 -0 -0 -0 -0 0 -0 -2 -1 -0 -1 0 -1 -1 -1 -0 -0 -0 -1 -1 -0 -0 nan
nan 0 0 0 0 -0 0 0 0 0 0 0 0 0 0 0 0 0 0 0 0 0 0 -0 0 -0 0 -0 0 -0 -0 -0 -0 -1 -0 -0 -1 -2 -1 -1 0 -0 -1 -1 -0 -0 -0 -1 -1 -1 -0 0 0 nan
nan 0 0 0 0 -0 -0 0 0 0 0 0 0 0 0 0 0 0 -0 0 -0 -0 -0 -0 -0 0 0 0 -0 -0 -0 -0 -0 -0 0 0 -0 -1 -0 -0 -0 -0 -0 -0 -0 -0 -0 -0 -0 -0 0 0 0 nan
nan 0 0 0 0 0 0 0 0 0 0 0 -0 -0 0 0 0 -0 -0 -0 -0 -0 -0 0 0 0 0 0 0 0 -0 -0 0 -0 -0 -0 -0 -0 -0 -0 -0 -0 -0 -0 -0 -0 -1 -0 0 1 -0 0 0 nan
nan 0 0 0 0 0 0 0 0 0 0 0 -0 -0 -0 0 -0 -0 -0 -0 0 0 -0 0 0 -0 -0 0 -0 -0 -0 0 -0 -0 -0 -0 0 0 -0 -0 -0 -0 0 -0 -0 0 -0 0 1 0 0 0 0 nan
nan 0 0 0 0 0 0 0 0 0 0 0 0 -0 -0 -0 -0 0 0 -0 -0 0 0 0 0 0 -0 -0 -0 -0 -0 0 -0 -0 -1 -0 -0 -0 -0 -0 -0 -0 -0 -0 0 -0 -1 -0 1 1 0 0 0 nan
nan 1 1 0 0 0 0 0 0 0 0 0 0 -0 0 0 -0 -0 0 0 -0 0 0 -0 0 -0 -0 -0 -0 -0 -0 -0 -0 -0 -0 -0 0 0 -0 -0 -0 -0 -0 -0 -0 -0 -1 -0 1 1 0 -0 -0 nan
nan 0 0 0 0 0 1 1 0 0 0 0 -0 -0 0 0 0 0 0 0 0 0 -0 0 -0 -0 -0 -0 -0 -0 -0 -1 -0 -0 -0 -0 0 1 1 0 -0 -1 -0 0 0 -0 -0 -0 1 1 -0 -0 -0 nan
nan -0 -0 0 0 1 0 0 0 0 0 0 -0 -0 0 -0 0 -0 0 -0 0 0 -0 -0 -0 -1 -0 0 -0 -0 -0 -0 -0 -0 -0 -0 -0 0 1 1 0 -0 0 -0 0 0 0 0 1 0 -0 -0 0 nan
nan -0 0 0 -0 0 0 0 0 0 -0 -0 0 0 0 -0 0 0 -0 0 0 -0 -0 -0 -0 0 0 -1 -1 -0 0 0 0 -0 -0 -0 -0 0 1 1 0 -0 0 0 0 0 1 0 0 -0 -0 0 0 nan
nan 0 0 0 0 -0 0 0 0 -0 -0 0 0 -0 -0 -0 0 -0 -0 0 -0 -0 0 0 -0 -0 -0 -0 0 0 0 -0 -0 -0 -0 0 0 0 0 0 1 0 0 0 0 0 0 0 0 -0 -0 -0 0 nan
nan 0 0 0 0 0 0 0 0 -0 -0 0 -0 -0 -0 -0 0 0 0 0 0 -0 -0 -0 -0 -1 -0 -0 -0 0 0 0 0 0 -0 -1 -1 -0 0 0 0 1 1 0 0 0 0 0 -0 -0 -0 -0 0 nan
nan 0 0 0 -0 -0 0 -0 -0 -0 -0 -0 0 0 0 0 0 0 -0 0 -0 -1 -1 -0 0 -0 -0 -0 0 0 0 0 0 0 0 -0 -0 0 0 0 1 1 0 0 0 0 -0 -0 -0 -0 -0 0 0 nan
nan -0 0 -0 -0 0 -0 -0 -0 -0 0 0 0 -0 -0 0 0 0 -0 -0 -1 -1 -1 -1 -0 -0 0 0 0 0 0 0 0 0 -0 -0 -0 -0 0 1 1 0 0 0 -0 0 -0 -0 -0 -0 0 0 0 nan
nan -0 -0 -0 -0 -0 -0 -0 0 -0 -0 -0 -0 -0 -0 0 0 0 -0 -1 -0 -0 -0 -0 0 0 0 1 1 0 1 1 0 0 -0 -0 0 0 0 -0 0 0 0 0 -0 -0 -0 -0 -0 0 0 0 0 nan
nan 0 -0 -0 -0 0 -0 -0 -0 -0 -0 -0 -0 -0 -0 0 0 -0 -1 -0 -0 -0 -0 0 0 0 0 0 0 0 0 1 1 1 1 0 -0 0 -0 -0 0 0 0 -0 -0 -0 -0 -0 0 0 0 1 1 nan
nan -0 -0 -0 -0 -0 -0 -0 -0 -0 -0 -0 -0 -0 0 0 -0 -0 -0 -0 0 0 0 0 0 0 0 0 0 0 0 0 0 1 0 -0 -1 -0 0 0 0 -0 -1 -0 -0 -0 -0 0 0 1 1 1 1 nan
nan -0 -0 -0 -0 -0 -0 0 -0 -0 -0 -0 -0 0 -0 -0 0 -1 -1 0 0 0 0 -0 0 0 0 0 0 0 1 1 0 -0 -0 0 -0 0 0 0 -0 -1 -0 0 -0 -0 0 0 1 1 1 1 0 nan
nan -0 -0 -0 0 0 0 0 -0 -0 0 -0 -0 0 0 -0 -1 -1 0 0 0 -0 0 0 0 1 1 0 0 0 -0 -0 0 0 -0 -0 0 0 0 -0 -0 -0 0 0 -0 -0 0 1 1 1 1 0 0 nan
nan -0 0 0 0 -0 -0 -0 0 -0 -0 -0 0 0 -0 -1 -0 0 1 0 -0 0 -0 -0 0 1 0 0 1 0 -0 -0 -0 0 -0 -0 -0 0 0 0 0 0 -0 -0 -0 0 0 1 1 1 1 0 0 nan
nan -0 0 0 0 0 -0 -0 -0 -0 -0 0 0 0 0 0 0 0 0 0 -0 -0 -0 -1 0 0 -0 -0 -0 1 1 0 -0 -0 -0 -1 -0 0 0 0 0 -0 0 -0 0 0 1 1 1 1 0 0 0 nan
nan 0 -0 0 0 -0 -0 0 -0 0 1 1 1 1 0 0 0 0 0 0 0 -0 0 0 0 -0 0 0 -0 -0 -0 0 0 0 -0 -1 -0 -0 0 0 0 0 0 0 0 1 1 1 1 1 0 0 0 nan
nan 0 -0 -0 -0 0 -0 0 1 1 2 1 0 0 -0 -0 0 0 -0 -0 0 1 1 1 0 0 -0 -0 -0 -0 -0 -0 -0 -0 -0 -0 -0 -0 -0 0 0 0 0 0 0 1 1 1 1 1 1 1 0 nan
nan -0 -0 -0 0 0 1 1 -0 -0 0 0 0 0 1 0 0 0 -0 1 1 1 -0 -0 1 0 -0 -0 -0 0 0 -0 -0 -0 -0 -0 -0 -0 0 0 0 0 0 0 0 0 0 1 1 0 0 0 0 nan
nan nan nan nan nan nan nan nan nan nan nan nan nan nan nan nan nan nan nan nan nan nan nan nan nan nan nan nan nan nan nan nan nan nan nan nan nan nan nan nan nan nan nan nan nan nan nan nan nan nan nan nan nan nan
Wind_Speed
25 30 31 29 31 35 33 33 31 29 27 25 23 21 18 16 13 14 13 13 14 9 16 12 15 17 12 9 7 4 3 4 1 3 4 5 4 5 7 14 10 11 4 4 4 8 10 3 6 3 14 35 39 37
25 29 31 41 43 35 32 33 31 31 30 29 27 25 24 20 18 17 20 18 18 20 12 10 17 26 22 23 21 12 11 6 10 4 4 3 5 2 5 14 18 13 14 11 11 9 21 38 35 38 39 41 34 37
14 19 26 32 34 39 40 34 31 32 30 30 29 28 27 26 24 23 23 23 21 23 27 32 25 32 26 27 22 24 17 21 19 20 14 4 7 4 6 6 6 7 23 17 20 18 29 36 44 45 37 33 39 36
12 13 16 21 26 34 38 41 45 37 33 30 30 29 27 27 26 25 27 27 24 10 7 11 19 28 20 20 23 27 28 25 23 20 14 3 3 11 6 12 14 12 8 13 23 31 38 33 33 34 33 37 34 32
9 13 14 13 17 23 26 32 36 46 37 35 33 33 30 28 26 27 27 30 29 22 4 5 10 12 15 18 23 25 26 26 27 14 8 7 7 8 14 12 12 17 18 13 14 38 31 40 38 38 34 30 34 34
6 8 9 13 13 11 13 21 26 32 38 40 37 40 35 31 25 24 23 33 34 31 11 2 8 16 23 26 28 29 27 28 29 12 7 10 22 11 4 11 11 15 21 30 35 37 44 43 36 29 32 34 27 27
5 7 9 7 5 8 7 10 19 27 30 29 31 35 33 30 25 29 8 6 12 27 7 5 6 3 21 25 27 27 25 22 20 21 12 12 18 11 4 20 44 34 34 39 40 40 32 31 30 33 26 26 28 30
9 6 7 8 8 7 3 2 3 8 18 24 25 26 28 25 25 21 11 8 14 19 8 2 3 3 8 6 5 7 6 9 9 9 7 6 13 12 7 26 35 34 32 32 30 28 28 30 26 23 25 29 31 28
17 12 10 7 3 5 11 11 8 7 8 9 11 12 13 14 12 12 14 13 10 6 5 4 1 1 5 3 3 2 5 3 6 5 7 8 6 8 17 29 32 36 34 29 26 24 18 16 20 26 30 32 25 23
21 18 14 9 7 5 7 8 8 9 10 9 8 5 4 7 9 3 1 5 7 7 6 4 5 2 4 5 1 2 4 3 3 6 7 4 12 33 38 38 36 19 17 20 15 15 18 21 24 29 27 20 18 24
19 19 17 14 10 8 6 7 10 14 16 7 5 4 10 10 5 4 2 4 4 3 6 6 12 5 5 3 3 6 2 3 3 5 4 4 6 14 9 10 14 12 9 8 11 15 19 22 27 24 17 17 13 10
18 17 16 16 12 10 9 11 13 9 5 6 8 11 8 4 3 2 3 4 4 3 7 5 4 5 3 5 5 5 3 4 7 3 2 4 1 5 6 6 8 10 11 13 14 18 24 27 22 17 16 16 13 12
18 16 14 12 13 14 13 13 12 10 10 8 2 3 3 3 4 5 6 3 3 3 2 2 3 1 1 2 4 2 4 3 2 3 3 4 6 3 4 9 13 16 15 20 23 24 25 25 20 20 19 18 15 12
18 17 16 15 16 14 14 14 14 13 5 2 3 4 5 5 5 4 3 3 4 8 9 6 2 1 2 2 3 4 3 2 4 5 8 5 6 6 11 12 13 15 18 25 27 26 24 23 22 21 17 15 12 9
20 19 18 19 17 16 15 15 17 13 4 4 5 5 6 5 1 4 4 6 5 3 2 1 1 2 3 4 3 4 4 6 5 6 5 11 5 12 16 17 19 24 28 29 26 25 27 23 22 20 14 13 8 12
19 18 19 20 19 17 16 15 12 8 3 4 4 3 2 1 4 3 4 3 5 5 3 1 2 3 5 4 6 7 5 10 10 6 15 19 19 22 23 25 26 34 33 30 27 28 30 26 27 22 13 12 9 13
18 8 19 19 17 16 17 8 6 5 5 3 4 6 4 1 1 4 7 5 7 7 3 3 5 9 4 5 6 6 10 11 19 20 21 23 28 28 24 27 31 30 28 26 26 27 27 28 22 16 13 9 13 11
8 12 18 18 18 17 8 5 4 3 5 7 4 5 6 6 7 7 6 8 10 7 9 6 6 9 7 13 13 12 21 25 25 26 27 32 29 29 32 31 32 27 27 30 29 31 31 25 18 14 11 14 13 11
10 14 16 18 18 10 6 7 4 4 8 5 8 8 9 11 14 14 13 12 12 12 6 5 6 9 11 19 19 25 25 26 28 33 34 30 29 30 32 28 28 29 27 29 26 26 23 18 14 11 10 12 10 9
14 11 13 18 16 5 5 3 6 4 4 6 10 11 12 8 8 13 14 14 13 9 9 6 11 23 25 30 31 32 32 31 31 31 34 33 30 29 30 29 30 31 35 30 27 18 14 16 15 16 14 12 11 10
15 13 14 16 12 6 3 5 6 4 4 5 7 11 9 9 12 11 13 13 14 11 17 26 33 38 36 35 35 35 36 36 36 34 35 36 34 31 34 34 31 32 27 22 15 13 14 14 12 15 14 14 13 13
18 19 14 19 7 5 7 9 5 4 5 5 4 7 8 12 16 16 12 11 14 26 32 32 31 30 31 30 30 32 35 36 36 36 38 38 36 32 29 29 27 27 24 17 15 14 14 15 14 13 13 14 14 15
15 20 15 12 8 8 5 13 10 7 5 6 6 5 5 6 7 6 7 15 23 27 25 26 27 27 28 31 33 35 35 33 33 33 31 32 32 30 29 31 26 25 17 15 14 13 15 15 15 14 14 15 15 14
17 9 6 8 12 4 8 8 8 5 5 4 5 7 9 10 7 6 10 23 30 27 26 27 25 25 23 22 22 28 27 22 23 26 28 29 31 29 24 26 19 16 14 10 15 17 16 15 14 15 15 15 14 12
7 9 7 7 9 7 6 5 6 7 6 8 11 8 3 5 5 8 14 26 26 26 28 24 19 18 19 21 25 25 19 21 24 26 30 25 23 22 22 15 12 12 16 18 16 15 15 15 15 15 15 14 12 9
8 10 11 9 9 7 8 5 7 10 10 11 7 5 0 4 6 8 8 15 16 17 18 18 17 16 17 19 23 24 22 23 25 30 23 16 18 17 16 12 10 14 14 11 11 14 15 15 15 14 13 12 11 11
5 8 9 12 11 9 6 4 7 6 8 7 5 7 5 6 7 9 17 16 14 12 12 15 17 19 19 20 20 22 25 25 23 20 17 17 16 15 15 16 12 10 10 12 14 16 14 13 14 13 11 10 10 11
10 7 13 15 10 16 13 10 7 7 8 13 13 10 5 6 7 13 10 9 12 15 19 22 24 24 24 25 24 25 25 22 19 17 18 16 13 13 12 13 13 12 13 12 11 13 14 13 13 13 11 11 10 13
12 16 12 13 18 11 13 11 14 20 19 16 11 13 17 23 24 24 22 21 25 29 31 29 26 24 24 24 25 23 20 18 15 14 15 15 14 14 15 17 17 17 17 16 14 15 15 14 14 14 13 14 15 15
20 20 21 21 10 12 23 18 22 23 23 26 30 31 32 33 35 33 34 36 34 30 26 24 24 23 23 20 18 15 16 17 14 14 15 15 13 14 16 15 19 20 20 16 15 19 17 15 15 15 16 17 17 15
8 13 17 23 22 34 34 29 28 27 24 20 21 23 28 27 24 26 28 27 25 24 21 17 16 15 13 12 10 11 10 10 12 11 11 13 14 16 15 14 13 10 9 9 11 13 13 13 14 16 18 16 13 11
9 12 9 7 10 16 19 10 9 10 12 14 17 17 14 8 9 10 15 14 13 10 13 13 10 7 9 7 7 6 5 6 5 6 3 3 3 2 2 2 2 3 4 5 7 9 10 10 10 10 8 8 7 7
16 18 19 15 8 7 9 9 7 6 9 8 9 15 14 9 5 6 6 8 9 9 9 9 8 7 6 5 4 3 3 3 2 2 2 0 2 3 4 4 5 5 5 5 5 6 8 8 7 8 8 8 9 8
Wind_Direction
229 222 226 218 226 228 229 231 231 231 235 236 240 241 240 238 238 243 244 246 234 245 253 242 238 241 240 250 253 252 254 236 130 190 218 232 239 252 272 268 283 280 259 213 226 236 277 275 284 288 280 307 305 314
217 219 227 234 234 228 228 229 232 233 233 237 238 241 241 236 236 241 247 252 248 241 252 236 242 247 247 251 259 250 229 229 208 222 216 223 242 236 257 276 270 270 245 261 241 259 283 300 307 303 306 302 326 313
208 219 223 229 227 235 233 233 234 236 235 236 237 241 243 243 241 240 246 251 250 252 255 260 249 261 249 244 242 250 249 243 256 252 275 214 232 230 260 260 233 247 249 258 269 270 275 293 297 290 305 315 314 314
210 208 217 227 231 231 231 239 235 235 235 238 237 237 242 246 250 253 251 253 248 245 247 243 249 258 244 247 243 239 246 254 257 261 256 207 217 201 245 258 261 261 251 257 269 275 291 283 285 309 310 305 314 317
219 221 214 215 226 230 234 240 239 235 238 240 237 237 238 244 250 256 261 254 251 233 255 245 232 242 257 245 244 237 238 243 248 242 224 246 241 243 259 264 254 241 252 259 270 282 284 296 306 316 314 319 320 318
231 229 227 226 219 217 228 233 232 232 236 241 237 242 239 238 242 249 246 246 242 237 254 272 257 237 243 242 233 229 232 240 234 241 229 233 247 233 255 270 281 269 266 265 267 275 287 298 307 313 323 320 320 321
227 216 202 209 221 221 229 235 231 231 232 231 234 232 236 233 229 221 228 213 218 226 237 278 277 257 222 224 235 245 244 231 238 247 242 255 253 227 251 269 277 283 283 281 279 280 294 305 311 316 317 322 322 322
199 182 179 199 208 207 202 219 226 220 221 225 221 223 232 236 226 221 218 183 200 198 189 225 265 297 198 203 223 233 235 233 235 247 257 237 267 217 252 265 280 288 291 296 303 310 308 317 315 319 325 327 327 333
199 183 174 176 181 192 218 225 231 202 179 184 188 190 188 185 196 198 204 175 185 220 191 192 240 143 182 186 233 248 225 240 246 236 223 252 248 236 261 280 287 295 303 322 318 319 318 319 321 325 329 329 330 332
202 196 185 181 165 150 156 160 180 178 182 186 179 163 150 158 150 151 154 194 212 211 216 218 189 210 223 165 239 287 224 234 239 233 242 233 252 261 270 277 285 313 320 325 310 329 332 326 324 326 322 321 321 320
198 195 187 179 182 180 169 153 142 140 132 124 128 117 135 129 124 152 189 204 193 224 209 212 203 206 214 193 202 216 234 216 248 252 226 234 250 259 314 313 330 336 329 328 333 327 323 316 316 312 307 309 314 331
183 189 199 189 186 202 192 170 159 153 156 139 131 121 127 145 133 206 195 194 209 229 175 176 187 207 178 215 232 201 237 206 238 14 261 252 217 8 354 354 319 319 324 326 324 321 317 312 304 290 292 301 287 289
187 189 189 189 195 194 189 181 175 164 150 133 119 99 125 140 195 214 188 217 185 143 105 137 102 108 303 267 259 254 249 237 351 223 242 279 219 200 339 331 321 315 307 306 308 305 307 304 292 270 287 291 283 283
191 191 190 192 188 180 178 176 172 166 130 152 142 185 221 186 229 187 228 66 85 121 99 74 64 293 205 219 237 268 257 286 239 244 259 290 66 355 332 322 314 308 302 298 292 294 304 306 295 268 284 281 275 298
189 192 189 188 177 177 181 180 175 167 167 171 177 213 216 218 100 87 132 125 119 99 101 54 229 238 218 247 237 263 243 234 233 259 292 333 326 314 318 314 311 315 315 309 298 290 300 300 284 271 266 263 274 300
166 164 176 175 175 176 177 174 166 181 195 196 223 239 134 172 196 222 203 195 172 176 139 141 229 237 234 224 212 224 250 255 263 306 314 311 316 314 310 308 308 316 314 310 294 284 291 293 283 262 240 245 278 282
165 177 172 171 170 167 156 154 154 184 199 219 220 229 231 350 190 165 175 209 185 155 223 193 222 224 280 234 226 233 249 272 291 300 302 304 309 305 301 302 306 307 304 300 294 282 281 289 265 234 219 242 265 275
158 171 171 166 158 147 154 151 175 192 232 222 224 215 220 233 243 236 243 209 194 220 228 226 258 235 232 249 254 266 278 291 297 294 296 299 298 297 298 295 300 301 300 300 291 293 291 281 237 203 222 247 261 271
157 167 170 175 173 155 161 188 188 245 230 234 233 240 239 251 251 252 249 242 235 237 241 226 236 244 244 257 269 278 283 285 284 289 289 291 295 295 293 296 298 300 301 302 299 297 284 253 199 207 227 249 252 256
156 161 178 178 170 146 159 191 195 242 242 227 228 234 222 240 253 242 251 246 229 228 224 230 247 256 265 268 270 276 281 286 288 290 289 292 293 294 293 295 295 289 298 301 297 277 249 210 204 212 238 252 251 248
161 162 158 170 190 203 198 190 204 228 242 232 236 234 245 241 240 243 248 243 225 227 243 247 252 255 258 264 272 278 281 283 283 282 284 289 290 290 291 292 287 292 294 291 259 244 215 207 209 232 246 247 249 257
175 175 174 193 207 206 232 208 216 189 212 236 216 224 249 249 253 244 243 238 244 243 242 252 259 266 272 275 283 286 286 286 285 284 283 284 284 285 284 284 283 283 286 259 236 217 212 223 236 250 247 246 251 264
191 194 192 191 200 221 230 194 199 202 222 206 209 227 228 231 244 238 239 241 248 254 265 269 272 274 278 283 285 286 288 286 284 281 283 283 283 281 278 280 277 275 251 224 204 205 231 249 251 246 245 249 256 261
197 191 202 197 202 219 159 183 197 213 224 219 226 247 259 249 235 236 260 262 265 273 274 275 276 276 279 280 285 290 288 287 282 279 284 289 281 281 282 281 264 231 218 214 235 251 250 241 241 244 246 249 254 245
197 195 204 200 194 180 193 190 200 214 232 213 241 250 231 191 234 258 266 274 278 278 278 280 275 263 264 278 288 298 296 293 288 284 292 283 281 287 286 246 225 227 221 255 249 236 238 242 246 246 248 253 233 233
217 196 197 204 186 199 197 219 210 225 241 249 235 249 100 244 245 250 257 273 274 275 279 280 276 274 277 286 291 295 296 293 299 296 294 294 285 284 259 234 243 245 235 232 241 249 251 252 244 239 245 235 228 232
222 206 205 217 214 196 231 234 241 218 222 230 229 219 203 228 246 248 268 264 260 266 283 292 287 278 280 292 291 292 298 305 304 297 289 284 281 271 258 258 241 228 233 239 251 259 252 241 237 239 233 225 232 245
221 229 216 199 216 223 236 239 225 229 234 240 227 226 218 222 247 266 273 276 272 286 299 297 287 278 281 292 296 297 303 306 305 293 283 272 274 275 255 227 218 228 241 250 263 241 232 236 234 229 228 232 246 261
231 231 236 234 221 222 230 235 235 236 240 238 234 236 240 252 266 276 278 277 282 289 292 288 282 279 282 293 297 297 300 301 299 293 284 268 270 272 252 235 234 241 252 255 249 231 228 235 233 236 248 256 263 273
240 228 231 234 222 234 235 230 252 258 259 257 254 259 263 264 266 270 272 277 281 282 277 273 277 280 287 296 298 296 293 298 294 281 274 274 270 275 277 272 250 251 256 247 232 227 229 237 244 250 256 271 274 274
238 219 235 240 245 247 256 259 259 266 255 255 255 251 257 270 272 266 267 268 268 267 269 275 277 285 288 290 288 291 304 301 312 309 298 286 276 273 274 259 241 239 221 215 226 232 238 244 251 259 269 266 262 258
206 218 227 237 249 244 248 242 240 237 247 238 244 246 249 249 260 254 254 250 249 250 257 265 272 262 271 273 279 286 286 289 307 329 342 36 23 20 156 213 215 206 219 237 250 256 258 253 256 262 259 260 252 247
245 241 240 249 242 233 217 207 224 245 224 237 245 236 224 229 253 239 253 240 242 247 254 256 251 246 243 245 250 248 255 281 327 338 8 51 201 205 207 217 239 253 262 276 280 274 276 275 259 250 248 243 254 261
Height
1490 1495 1501 1507 1512 1518 1522 1527 1530 1534 1537 1540 1542 1544 1547 1550 1551 1554 1556 1557 1559 1557 1555 1556 1558 1559 1558 1560 1560 1561 1564 1563 1564 1565 1565 1561 1557 1546 1539 1534 1537 1537 1542 1535 1532 1523 1504 1483 1484 1496 1485 1476 1475 1471
1487 1491 1495 1500 1506 1511 1516 1520 1524 1527 1531 1534 1537 1539 1543 1545 1547 1549 1551 1551 1553 1553 1552 1549 1552 1551 1554 1554 1555 1556 1555 1554 1555 1556 1557 1554 1553 1552 1548 1536 1533 1529 1524 1513 1512 1492 1483 1480 1481 1481 1479 1471 1469 1470
1484 1486 1490 1495 1499 1504 1508 1512 1517 1520 1524 1528 1531 1534 1537 1540 1541 1544 1546 1546 1548 1547 1543 1543 1541 1542 1544 1545 1549 1551 1550 1550 1549 1549 1548 1545 1545 1540 1538 1527 1526 1521 1520 1511 1503 1491 1484 1482 1481 1479 1475 1472 1465 1463
1483 1485 1486 1489 1492 1495 1500 1504 1509 1512 1517 1520 1525 1528 1531 1534 1536 1538 1540 1542 1543 1542 1536 1529 1535 1534 1537 1539 1539 1541 1542 1545 1544 1544 1542 1540 1538 1532 1524 1519 1516 1516 1513 1505 1489 1485 1483 1481 1477 1473 1469 1466 1460 1456
1481 1483 1484 1485 1487 1489 1491 1495 1498 1503 1508 1512 1517 1521 1524 1527 1530 1532 1533 1534 1536 1539 1529 1527 1525 1529 1530 1532 1533 1533 1534 1535 1536 1536 1532 1528 1526 1527 1516 1510 1502 1505 1499 1497 1485 1485 1481 1470 1468 1467 1462 1459 1455 1451
1478 1479 1479 1482 1484 1484 1486 1488 1491 1495 1499 1504 1507 1513 1516 1520 1524 1525 1523 1522 1528 1527 1529 1519 1515 1515 1520 1523 1523 1523 1524 1525 1527 1524 1518 1515 1518 1519 1510 1494 1489 1490 1491 1489 1480 1477 1472 1466 1462 1460 1457 1454 1450 1447
1475 1476 1479 1480 1481 1481 1483 1485 1486 1489 1492 1496 1499 1503 1508 1513 1515 1515 1515 1515 1518 1522 1519 1517 1512 1508 1510 1512 1515 1516 1517 1516 1517 1516 1508 1508 1511 1511 1502 1489 1469 1486 1483 1478 1472 1468 1462 1461 1456 1455 1453 1450 1446 1441
1476 1476 1478 1479 1480 1481 1482 1483 1484 1485 1487 1491 1494 1498 1503 1505 1506 1508 1509 1508 1512 1517 1516 1514 1510 1510 1509 1510 1511 1510 1509 1509 1506 1504 1502 1503 1502 1500 1488 1476 1475 1472 1470 1466 1462 1461 1458 1454 1453 1451 1448 1444 1439 1435
1475 1476 1477 1479 1480 1480 1481 1483 1485 1486 1487 1488 1490 1494 1498 1500 1502 1503 1506 1508 1510 1514 1509 1510 1507 1508 1509 1508 1510 1509 1508 1505 1504 1497 1496 1497 1488 1481 1471 1470 1468 1466 1463 1461 1460 1458 1456 1453 1450 1447 1444 1440 1437 1434
1472 1474 1474 1478 1479 1481 1481 1482 1484 1485 1486 1489 1492 1496 1498 1499 1501 1504 1504 1506 1507 1505 1506 1506 1506 1507 1508 1507 1508 1509 1505 1503 1497 1488 1487 1483 1470 1469 1467 1465 1462 1460 1460 1459 1458 1455 1454 1452 1449 1444 1444 1443 1439 1435
1469 1471 1472 1475 1478 1481 1482 1484 1485 1487 1487 1489 1491 1495 1498 1500 1501 1504 1505 1506 1504 1503 1502 1500 1501 1501 1503 1505 1505 1505 1500 1497 1490 1479 1478 1472 1465 1462 1462 1462 1462 1461 1460 1459 1457 1456 1454 1453 1448 1444 1441 1440 1437 1435
1466 1469 1471 1474 1477 1480 1483 1483 1485 1488 1490 1491 1492 1495 1498 1499 1500 1503 1501 1503 1500 1495 1495 1496 1500 1500 1500 1501 1500 1498 1495 1492 1483 1483 1482 1469 1460 1462 1462 1460 1462 1462 1458 1455 1454 1453 1452 1449 1445 1441 1437 1436 1434 1432
1465 1467 1470 1473 1476 1479 1481 1483 1485 1488 1489 1491 1493 1494 1494 1498 1499 1497 1492 1492 1490 1493 1496 1498 1498 1500 1500 1500 1499 1497 1488 1479 1484 1478 1468 1461 1460 1461 1462 1461 1460 1459 1456 1453 1451 1450 1447 1443 1439 1436 1434 1433 1431 1430
1464 1466 1469 1473 1475 1477 1480 1483 1485 1487 1490 1492 1495 1497 1496 1493 1490 1484 1485 1489 1494 1496 1497 1498 1499 1499 1499 1498 1495 1493 1481 1481 1473 1467 1456 1451 1457 1460 1460 1459 1457 1454 1453 1449 1445 1442 1439 1435 1432 1431 1430 1429 1428 1427
1462 1465 1469 1472 1473 1475 1480 1484 1486 1487 1490 1492 1494 1491 1490 1488 1487 1487 1488 1491 1494 1495 1497 1497 1497 1498 1497 1497 1493 1488 1481 1473 1462 1454 1450 1453 1457 1458 1456 1455 1453 1448 1444 1440 1438 1435 1431 1429 1427 1426 1425 1425 1424 1423
1462 1465 1467 1469 1472 1476 1481 1484 1486 1487 1488 1490 1489 1487 1486 1487 1487 1489 1488 1490 1493 1494 1495 1496 1497 1497 1493 1487 1482 1477 1467 1455 1451 1452 1453 1453 1454 1453 1452 1449 1445 1441 1437 1434 1430 1428 1425 1423 1420 1418 1418 1420 1420 1419
1460 1462 1464 1468 1472 1476 1480 1482 1483 1484 1486 1486 1484 1484 1485 1486 1486 1487 1487 1490 1491 1493 1493 1493 1492 1486 1478 1473 1469 1462 1455 1454 1453 1452 1452 1452 1450 1448 1446 1443 1439 1435 1430 1426 1423 1420 1418 1415 1413 1412 1414 1415 1416 1416
1460 1461 1464 1468 1471 1475 1478 1480 1482 1482 1482 1481 1482 1482 1483 1485 1485 1485 1484 1487 1488 1489 1487 1486 1483 1477 1471 1461 1456 1455 1454 1452 1452 1451 1448 1446 1444 1441 1439 1436 1431 1428 1424 1419 1416 1413 1410 1408 1407 1409 1411 1412 1413 1413
1460 1461 1464 1467 1470 1474 1477 1480 1481 1479 1478 1478 1479 1480 1481 1481 1480 1481 1482 1483 1484 1485 1484 1481 1477 1466 1459 1458 1456 1453 1452 1450 1447 1444 1440 1438 1437 1434 1430 1427 1423 1419 1416 1411 1408 1405 1403 1402 1404 1408 1409 1408 1409 1409
1459 1462 1464 1468 1472 1475 1477 1478 1479 1478 1475 1474 1475 1476 1476 1476 1475 1476 1476 1477 1479 1479 1477 1470 1463 1458 1455 1452 1451 1448 1446 1443 1441 1436 1430 1429 1428 1426 1422 1419 1415 1411 1407 1404 1401 1399 1399 1400 1402 1404 1405 1405 1406 1406
1460 1463 1467 1470 1472 1474 1475 1474 1475 1475 1472 1471 1471 1472 1472 1471 1472 1471 1470 1470 1470 1466 1461 1457 1451 1446 1446 1445 1443 1441 1438 1436 1432 1429 1424 1419 1417 1416 1412 1410 1407 1402 1400 1397 1396 1395 1397 1398 1400 1400 1401 1402 1403 1403
1458 1462 1465 1468 1470 1471 1470 1469 1470 1470 1471 1469 1470 1469 1467 1465 1464 1463 1462 1462 1457 1450 1446 1442 1442 1440 1438 1436 1435 1432 1428 1425 1422 1419 1415 1411 1407 1404 1402 1400 1398 1395 1393 1392 1392 1393 1394 1396 1396 1398 1398 1399 1400 1400
1458 1461 1463 1465 1468 1466 1463 1463 1465 1465 1465 1462 1463 1462 1460 1460 1458 1457 1453 1446 1440 1437 1437 1435 1433 1432 1430 1427 1425 1421 1417 1415 1411 1407 1404 1401 1398 1395 1392 1390 1389 1388 1387 1388 1389 1391 1391 1392 1393 1394 1395 1396 1396 1396
1455 1457 1457 1458 1458 1455 1456 1457 1458 1459 1458 1457 1455 1453 1450 1450 1450 1448 1439 1431 1428 1429 1428 1426 1426 1423 1422 1420 1417 1412 1409 1407 1403 1400 1397 1393 1389 1386 1384 1382 1382 1383 1384 1386 1387 1387 1387 1389 1390 1391 1391 1392 1393 1393
1452 1452 1452 1448 1449 1452 1452 1451 1451 1451 1448 1449 1448 1444 1441 1443 1441 1434 1426 1419 1420 1420 1419 1418 1417 1416 1415 1412 1409 1405 1403 1400 1396 1392 1388 1386 1382 1380 1378 1378 1379 1380 1381 1382 1382 1383 1384 1385 1386 1387 1388 1388 1389 1390
1442 1440 1440 1437 1438 1441 1439 1439 1438 1438 1440 1440 1437 1436 1437 1436 1433 1423 1413 1412 1412 1412 1412 1411 1410 1410 1408 1407 1403 1399 1397 1393 1389 1384 1380 1380 1379 1377 1376 1375 1376 1376 1377 1378 1380 1381 1381 1381 1382 1383 1384 1384 1385 1387
1431 1429 1429 1430 1430 1433 1432 1433 1432 1432 1430 1428 1428 1430 1431 1430 1419 1408 1406 1406 1406 1406 1406 1406 1405 1403 1401 1399 1397 1393 1389 1387 1384 1380 1377 1376 1375 1374 1374 1373 1373 1374 1375 1376 1377 1377 1377 1378 1379 1380 1381 1382 1383 1384
1423 1421 1421 1424 1426 1426 1426 1425 1423 1423 1419 1418 1420 1418 1419 1411 1402 1403 1403 1403 1402 1402 1401 1400 1398 1396 1394 1392 1389 1386 1383 1380 1378 1375 1373 1372 1371 1370 1369 1369 1371 1372 1373 1373 1373 1373 1375 1376 1377 1378 1378 1379 1380 1379
1414 1414 1417 1415 1418 1419 1416 1413 1410 1407 1408 1408 1407 1404 1401 1400 1400 1399 1399 1397 1396 1395 1394 1393 1391 1389 1387 1385 1382 1380 1378 1376 1374 1371 1370 1368 1368 1368 1367 1368 1368 1368 1369 1369 1370 1371 1372 1373 1374 1375 1376 1376 1376 1375
1405 1407 1408 1407 1408 1403 1398 1402 1398 1399 1400 1400 1399 1397 1395 1392 1392 1392 1390 1389 1388 1387 1386 1384 1383 1381 1379 1378 1375 1375 1373 1371 1370 1368 1366 1365 1364 1364 1363 1363 1363 1364 1364 1364 1365 1367 1369 1370 1371 1372 1372 1372 1372 1371
1397 1398 1398 1398 1395 1391 1391 1393 1392 1391 1390 1390 1390 1389 1385 1386 1383 1381 1380 1379 1379 1378 1378 1377 1376 1375 1374 1373 1372 1371 1370 1368 1366 1364 1362 1360 1359 1359 1359 1359 1359 1360 1360 1362 1363 1365 1366 1367 1367 1367 1367 1367 1367 1366
1392 1391 1391 1388 1386 1385 1385 1385 1385 1384 1382 1381 1380 1380 1380 1379 1377 1373 1370 1371 1371 1372 1371 1371 1371 1371 1370 1370 1369 1368 1367 1366 1365 1363 1361 1360 1359 1359 1359 1359 1359 1360 1361 1362 1363 1363 1363 1363 1364 1363 1364 1363 1363 1363
1384 1384 1382 1382 1380 1379 1379 1380 1377 1375 1374 1372 1370 1370 1371 1372 1368 1367 1365 1366 1367 1367 1367 1367 1367 1367 1367 1367 1367 1366 1366 1365 1365 1364 1362 1361 1361 1360 1360 1361 1361 1361 1361 1361 1361 1361 1361 1361 1361 1361 1361 1361 1361 1361